{"data":{"norad_id":55915,"epoch":"2026-05-25T04:21:10.232352Z","epoch_age_seconds":62601,"freshness":"FRESH","line1":"1 55915U 23037B   26145.18136843  .00001004  00000+0  91956-4 0  9990","line2":"2 55915  69.9989 111.6447 0003353 267.2726  92.8049 14.98322453175621","mean_motion":14.98322453,"eccentricity":0.0003353,"inclination_deg":69.9989,"raan_deg":111.6447,"arg_perigee_deg":267.2726,"mean_anomaly_deg":92.8049,"bstar":9.1956e-5,"rev_number":17562,"period_min":96.107483213428,"perigee_km":569.74882201557,"apogee_km":574.40963701908,"semimajor_km":6950.2162295173,"source":"CELESTRAK","updated_at":"2026-05-25T13:38:17.889020Z"}}